Location: Mana�l
(15.0115°N, 12.5022°W)
Time: 05:56:02
(UTC+00:00)

CZ-4B R/B - Pass Details

Date: 07 June 2020
Orbit: 392 x 463 km, 97.6° (Epoch: 05 July)

Event Time Altitude Azimuth Distance (km) Brightness Sun altitude
Rises 04:38:07 0° 141° (SE) 2,278 5.1 -22.4°
Reaches altitude 10° 04:40:30 10° 120° (ESE) 1,425 4.2 -21.9°
Maximum altitude 04:42:36 18° 76° (ENE) 1,064 4.1 -21.5°
Drops below altitude 10° 04:44:44 10° 32° (NNE) 1,435 4.9 -21.0°
Sets 04:47:08 0° 11° (NNE) 2,301 5.6 -20.5°
